Theta_e
317 316 316 319 322 324 324 326 325 326 327 324 323 322 323 324 325 326 327 329 329 328 330 330 330 329 329 328 326 323 326 322 320 315 313 309 305 306 309 309 311 311 311
317 314 316 316 320 322 324 323 321 320 322 321 322 323 323 323 324 325 326 326 325 325 325 325 325 323 321 320 317 316 316 317 317 314 309 305 306 308 311 312 311 310 310
315 315 313 315 320 319 319 319 318 320 322 322 322 322 322 322 323 323 322 321 319 318 317 317 316 315 316 314 313 312 306 305 305 304 309 310 309 310 312 311 311 311 310
312 314 314 311 317 317 317 317 317 320 320 321 321 320 320 320 319 316 315 315 314 313 312 312 311 310 309 308 306 304 304 306 306 307 309 308 310 310 311 312 312 311 311
311 312 314 313 315 318 313 317 318 319 319 318 317 315 316 314 311 311 311 310 309 308 306 305 304 303 302 302 302 304 304 305 306 308 309 310 312 312 312 312 311 312 310
309 311 313 314 315 316 313 317 316 315 315 314 311 311 309 308 307 307 306 306 305 304 303 303 303 303 305 306 306 305 306 307 309 308 312 311 310 310 310 310 311 311 309
308 311 313 314 316 313 314 315 314 313 310 309 308 307 306 305 304 304 304 304 304 303 303 303 303 304 304 304 305 308 311 311 311 310 309 309 308 307 308 308 308 309 308
308 311 313 315 313 312 313 310 309 308 307 306 305 304 304 303 303 303 303 302 302 302 303 303 304 304 304 305 306 307 307 309 309 309 308 305 304 307 307 308 309 310 307
307 312 313 314 310 312 308 308 306 306 304 303 302 302 302 302 302 303 303 303 304 303 303 304 306 306 306 308 307 305 303 303 304 305 304 305 305 303 305 307 308 309 307
308 312 313 310 311 308 307 305 304 303 302 300 301 301 302 302 302 301 301 302 302 303 303 304 305 306 306 309 308 309 308 308 308 306 306 306 306 304 302 302 304 305 306
307 310 311 310 308 306 304 303 302 301 301 301 301 301 302 303 302 302 303 303 304 304 304 304 305 306 304 305 307 307 307 306 306 305 306 306 304 302 302 302 303 304 304
309 309 308 306 305 304 303 302 302 302 302 303 303 302 302 302 302 304 304 305 305 304 304 304 304 304 304 306 306 306 306 307 307 305 304 303 303 302 301 301 302 302 301
309 307 305 304 303 302 302 302 303 303 304 304 304 303 304 304 304 304 304 305 305 304 304 305 305 305 306 306 306 306 307 306 306 306 304 303 302 301 301 300 299 300 300
307 304 302 302 301 304 305 304 304 304 304 304 304 304 304 305 305 305 305 305 305 305 305 305 306 306 306 306 306 307 306 306 305 305 303 301 301 301 300 299 299 298 298
304 302 302 301 303 303 303 303 303 304 304 303 303 302 302 302 303 304 305 305 305 305 304 306 305 306 307 306 306 306 305 305 303 302 300 301 300 300 300 300 300 299 298
302 301 301 304 304 303 302 302 302 302 302 301 301 301 301 302 303 303 304 304 303 304 305 305 305 306 306 305 306 306 305 305 303 301 300 300 300 300 300 300 300 299 299
303 301 304 304 304 303 303 302 301 301 301 301 301 301 301 301 302 302 303 304 304 304 304 304 305 305 305 304 303 306 304 303 301 300 300 299 299 300 301 300 299 300 300
302 305 305 305 304 304 303 304 303 302 302 301 301 301 302 302 302 303 304 304 304 304 303 304 305 303 304 304 303 305 304 303 301 300 300 299 299 300 300 300 299 299 299
305 306 306 305 304 304 304 303 303 303 303 302 302 301 300 300 301 301 302 303 303 303 303 303 303 303 303 303 303 303 302 302 301 300 300 300 299 300 300 300 300 299 301
306 306 305 304 305 304 304 304 305 304 303 303 301 301 300 300 300 300 301 302 302 302 302 302 303 303 303 303 303 302 303 302 301 301 301 301 300 300 301 301 300 300 300
305 305 305 305 305 305 304 303 301 301 299 298 298 297 298 298 299 299 301 301 301 301 302 302 302 302 302 302 302 302 303 302 302 303 302 303 302 301 301 302 302 302 302
305 305 306 305 304 303 301 301 301 298 297 297 297 297 298 298 299 300 300 300 301 301 302 302 302 301 302 302 302 302 302 304 303 303 303 303 303 303 303 304 303 303 303
306 305 305 304 302 301 301 301 300 299 299 299 298 298 298 298 298 298 299 299 300 301 301 301 301 301 301 301 301 302 303 302 303 303 303 303 303 303 303 303 303 303 303
305 304 303 302 302 301 301 300 299 299 299 299 299 298 298 298 297 297 298 298 299 300 300 300 300 300 300 301 301 302 303 303 303 303 303 303 303 303 303 303 303 303 303
304 303 303 301 301 300 300 299 299 299 299 299 298 298 298 297 297 297 297 296 297 297 298 299 298 299 299 300 301 301 302 302 303 303 303 303 303 303 303 303 303 303 303
303 303 301 300 300 300 300 299 299 299 299 298 298 298 298 297 297 297 296 295 295 295 295 296 297 297 299 299 300 301 301 302 303 303 303 303 303 303 303 303 303 303 303
Wind_Speed
17 18 11 7 27 17 13 12 15 13 13 15 17 21 23 23 23 22 22 20 22 21 21 20 22 23 22 19 14 16 21 18 16 15 18 12 10 9 10 2 4 4 8
19 17 16 13 24 18 16 13 14 15 17 19 19 19 21 22 22 20 19 17 18 18 16 16 17 17 16 12 6 7 9 7 13 19 14 10 7 6 2 4 5 5 7
20 20 17 12 21 17 15 16 19 18 19 19 17 17 18 18 18 18 17 14 12 10 9 8 5 5 8 10 10 12 12 16 9 15 14 11 6 3 3 3 1 4 3
21 20 20 18 21 14 15 19 18 18 17 17 16 15 14 14 14 12 10 7 2 3 6 10 12 11 12 14 17 16 20 18 15 15 11 11 6 8 5 5 5 3 4
20 19 17 16 22 12 20 17 16 16 14 13 13 13 12 10 8 3 2 8 10 13 14 15 17 19 16 19 21 17 18 16 14 14 11 11 8 6 3 1 1 5 6
20 20 16 15 16 15 18 14 14 11 11 10 10 10 10 9 6 8 10 11 14 13 17 20 22 25 16 18 22 17 18 20 12 6 11 11 10 5 3 3 1 7 6
19 16 16 13 8 16 14 10 7 7 7 8 9 9 13 13 9 8 7 8 11 12 12 12 14 18 19 19 23 14 17 13 14 13 14 8 6 3 4 5 3 1 2
15 14 14 9 15 13 8 4 5 7 8 9 10 9 9 11 8 14 19 15 16 18 20 18 17 21 25 21 17 13 12 13 14 13 9 8 6 6 3 3 2 6 3
14 13 12 9 11 7 1 5 8 9 10 10 11 11 10 15 14 15 14 16 17 17 16 14 14 15 11 15 17 18 17 17 15 14 13 12 12 6 2 7 7 7 5
11 10 6 9 4 2 6 11 12 12 14 15 16 17 16 18 15 16 20 18 15 15 14 19 19 14 17 16 16 14 14 11 9 14 14 14 15 15 16 7 6 7 6
9 8 11 4 4 9 14 14 14 15 16 23 21 16 14 14 11 12 9 15 15 14 16 17 16 17 20 18 14 17 17 15 13 14 14 13 11 12 17 14 12 12 8
7 5 1 9 15 17 19 20 20 24 24 20 18 19 18 16 13 15 16 15 16 18 20 23 23 21 20 18 16 17 15 13 15 16 12 12 13 14 14 16 17 16 14
5 4 13 19 21 25 28 24 23 21 19 18 16 18 16 18 26 25 25 24 25 24 24 23 22 21 19 19 16 15 15 15 16 15 15 14 11 10 11 15 22 21 19
6 18 24 25 29 26 20 17 20 19 18 17 17 17 15 19 20 18 18 20 20 18 19 19 19 18 16 15 17 17 18 18 17 15 13 12 14 13 15 14 17 20 26
21 27 28 30 19 26 26 22 21 19 17 18 20 19 20 22 23 20 17 17 16 20 21 19 19 18 17 19 19 19 20 15 15 14 15 17 15 14 17 16 17 20 28
31 31 30 25 21 25 28 29 25 24 23 22 23 23 24 22 22 23 24 21 18 20 19 22 21 21 22 19 20 21 22 20 19 16 19 18 17 19 20 19 20 23 24
33 34 30 25 25 27 26 26 27 26 25 26 26 26 26 25 24 23 22 16 22 21 22 22 21 23 23 22 22 20 23 22 20 22 21 19 21 24 25 26 27 27 26
36 27 24 23 24 24 22 22 21 20 21 22 21 20 21 21 19 16 17 19 19 21 24 23 22 23 23 24 22 23 24 23 28 28 28 24 24 27 30 34 38 39 37
29 21 23 23 21 21 21 21 21 20 19 18 17 19 22 24 23 23 22 22 21 21 23 24 22 20 21 20 23 24 25 24 27 28 28 29 30 34 38 39 42 41 38
17 25 24 23 21 21 20 20 19 18 18 19 20 19 17 18 21 22 23 23 22 22 22 21 24 22 22 20 20 23 23 24 26 27 25 31 29 37 38 39 38 36 38
26 25 24 22 21 20 18 17 19 20 21 22 23 22 21 21 22 23 23 23 23 22 22 21 20 23 23 20 21 20 21 22 25 26 27 22 23 34 30 25 25 25 26
24 24 22 21 21 20 20 21 21 21 22 23 23 24 24 23 24 24 24 24 23 23 22 22 21 19 21 22 20 24 21 21 23 23 25 23 25 22 22 23 25 26 25
24 23 22 22 22 23 21 20 21 21 21 22 21 22 23 25 25 25 24 24 24 24 22 23 22 22 19 20 22 24 23 20 19 22 22 23 25 24 22 22 23 22 24
23 23 24 23 21 21 21 21 21 22 22 22 22 23 23 24 24 25 24 24 24 24 24 25 27 25 23 21 20 25 24 23 20 19 21 20 23 23 23 24 23 23 23
24 23 22 22 22 22 22 21 21 21 21 22 23 23 22 22 23 23 23 23 24 25 25 24 25 28 29 27 25 24 25 26 24 21 20 21 22 22 22 22 22 22 21
23 22 22 22 21 21 21 21 21 20 21 22 22 21 21 21 21 22 22 23 24 24 23 25 27 28 28 29 28 26 23 23 23 21 20 20 21 20 20 20 20 20 21
Wind_Direction
338 316 333 333 347 347 347 344 351 355 333 309 304 307 308 309 308 303 300 296 288 286 284 280 278 276 268 264 248 221 220 220 216 190 179 166 187 163 237 232 252 300 289
326 317 288 317 339 339 341 330 345 347 333 325 320 312 310 310 309 308 309 303 296 294 287 276 274 265 262 256 192 175 180 159 177 159 158 153 160 182 164 199 196 199 275
319 312 297 312 321 324 323 328 337 341 335 329 321 318 321 324 319 313 313 312 306 296 286 279 254 195 176 152 139 146 94 108 111 114 118 113 120 135 156 183 261 201 144
313 308 306 297 318 314 323 327 332 337 331 326 327 329 331 332 327 323 329 321 302 134 132 127 119 119 125 124 117 106 102 107 108 118 132 132 135 147 148 209 240 137 150
305 301 300 306 304 323 326 321 330 332 334 337 341 348 351 356 13 30 110 123 119 117 112 113 115 105 102 109 113 116 113 130 125 116 124 144 139 120 156 198 181 215 159
301 294 296 302 305 314 315 320 326 341 355 6 18 26 45 66 106 108 106 111 102 100 108 107 109 107 112 117 114 117 110 99 115 183 122 90 88 91 99 51 89 134 156
292 289 289 298 297 313 313 314 342 11 29 50 63 75 93 98 93 84 79 98 102 102 110 112 104 107 105 102 106 97 103 112 98 109 105 105 121 126 100 52 111 12 76
294 287 283 280 297 312 304 356 43 61 66 73 91 98 98 88 71 74 73 73 82 89 88 90 82 88 105 112 110 108 106 122 111 114 130 99 90 133 100 46 276 192 160
296 298 295 272 305 296 34 75 84 87 92 91 89 83 90 103 95 82 66 64 78 79 88 109 95 131 136 118 110 106 100 103 98 87 87 71 55 37 156 69 56 148 118
293 320 250 318 315 99 102 104 99 95 94 92 93 89 77 95 89 75 83 93 88 81 84 99 110 85 89 97 114 112 116 110 108 73 73 72 55 25 32 52 155 127 132
276 252 305 323 110 114 111 104 104 102 95 79 80 82 98 87 78 94 53 87 88 100 93 88 90 87 83 89 99 99 96 95 88 70 80 85 62 39 34 59 77 92 97
232 284 172 117 120 116 104 96 92 85 84 86 87 77 67 64 61 66 77 79 89 96 95 90 86 88 95 82 89 92 96 97 102 92 68 58 47 55 47 54 66 71 64
220 126 122 127 116 106 97 92 88 88 86 83 77 72 68 70 73 80 80 86 84 81 86 88 85 88 79 79 76 86 86 82 72 74 70 67 65 68 63 70 66 69 72
136 131 130 119 108 92 85 99 94 88 85 79 71 67 63 77 76 72 78 85 86 82 75 81 85 84 89 76 76 66 78 72 73 72 70 71 82 75 88 88 86 82 74
136 132 123 114 97 107 102 92 93 84 85 82 86 79 75 76 77 78 77 69 71 80 81 77 74 71 73 78 71 69 73 73 68 63 78 84 79 85 90 91 94 99 95
135 130 118 106 105 101 101 97 92 93 91 90 92 82 79 82 85 83 79 82 75 87 74 69 67 65 64 71 68 65 72 65 57 74 77 80 85 96 96 95 98 99 101
132 119 108 108 107 107 104 100 96 96 89 82 86 89 89 89 88 82 79 81 70 65 66 64 62 64 67 63 76 63 78 64 67 75 79 81 97 101 101 96 95 97 97
125 115 116 116 113 109 108 107 100 97 89 81 82 82 87 82 74 71 82 75 76 74 73 70 62 58 63 64 69 63 77 58 69 75 71 84 97 103 101 99 96 93 95
111 115 119 119 117 111 107 104 100 95 90 85 80 74 71 70 66 66 67 69 68 66 67 66 61 62 59 57 66 76 74 63 71 85 83 82 87 101 98 92 85 80 87
107 124 121 117 113 110 106 102 96 92 88 83 76 73 72 68 65 64 64 65 66 65 64 64 64 63 59 63 70 78 71 76 80 76 83 74 90 90 93 84 76 80 75
122 120 118 115 112 108 104 100 97 93 87 84 79 78 76 72 69 67 65 64 63 63 62 64 64 65 62 65 72 76 79 76 83 79 85 83 77 78 79 81 85 90 79
119 120 119 114 110 107 103 100 97 93 90 86 80 72 71 71 69 66 64 62 63 64 63 63 60 63 68 73 72 81 83 75 80 78 83 82 85 88 87 83 82 84 93
123 122 116 114 112 106 104 102 100 98 93 87 83 77 72 69 67 65 64 63 62 63 63 67 64 63 66 80 87 89 81 77 78 84 85 82 85 85 85 86 84 85 92
125 122 116 113 114 112 109 107 104 99 94 89 85 79 74 71 69 68 66 66 66 65 64 63 65 69 70 75 78 89 85 84 81 85 88 86 85 83 83 83 85 87 88
122 121 120 119 117 113 109 108 104 99 95 90 85 82 79 76 73 70 70 68 66 65 66 66 65 67 73 81 88 93 92 87 85 85 85 84 86 84 83 84 84 85 86
124 122 121 120 119 117 113 110 106 102 96 91 88 85 83 80 77 74 71 69 69 69 68 65 67 74 79 83 86 88 90 92 90 88 83 87 87 86 85 85 85 86 85